TimeCST,TemperatureF,Dew PointF,Humidity,Sea Level PressureIn,VisibilityMPH,Wind Direction,Wind SpeedMPH,Gust SpeedMPH,PrecipitationIn,Events,Conditions,WindDirDegrees,DateUTC
12:55 AM,19.0,16.0,88,29.95,4.0,NNW,4.6,-,N/A,,Clear,330,2012-12-24 06:55:00
1:37 AM,19.4,17.6,93,29.89,4.0,North,4.6,-,N/A,,Mostly Cloudy,350,2012-12-24 07:37:00
1:55 AM,19.0,17.1,92,29.97,4.0,NW,6.9,-,N/A,,Mostly Cloudy,320,2012-12-24 07:55:00
2:05 AM,19.4,17.6,93,29.93,4.0,NW,6.9,-,N/A,,Mostly Cloudy,320,2012-12-24 08:05:00
2:13 AM,19.4,17.6,93,29.93,4.0,NW,5.8,-,N/A,,Overcast,320,2012-12-24 08:13:00
2:52 AM,19.4,19.4,100,29.92,2.5,North,8.1,-,N/A,,Overcast,350,2012-12-24 08:52:00
2:55 AM,19.9,19.0,96,29.97,2.5,NNW,8.1,-,N/A,,Overcast,340,2012-12-24 08:55:00
3:05 AM,19.4,19.4,100,29.92,2.0,NNW,6.9,-,N/A,,Overcast,330,2012-12-24 09:05:00
3:39 AM,21.2,19.4,93,29.92,1.8,NNW,8.1,-,N/A,,Overcast,330,2012-12-24 09:39:00
3:55 AM,21.0,19.0,92,29.97,1.8,NNW,8.1,-,N/A,,Overcast,330,2012-12-24 09:55:00
4:20 AM,21.2,19.4,93,29.91,2.0,NNW,8.1,-,N/A,,Overcast,340,2012-12-24 10:20:00
4:55 AM,21.0,19.0,92,29.96,2.5,NNW,8.1,-,N/A,,Overcast,340,2012-12-24 10:55:00
5:09 AM,21.2,19.4,93,29.92,3.0,NW,10.4,-,N/A,,Overcast,320,2012-12-24 11:09:00
5:55 AM,21.0,19.0,92,29.99,3.0,NNW,8.1,-,N/A,,Overcast,330,2012-12-24 11:55:00
6:55 AM,19.9,18.0,92,30.02,3.0,NNW,11.5,-,N/A,,Overcast,330,2012-12-24 12:55:00
7:42 AM,19.4,17.6,93,29.99,2.5,WNW,13.8,-,N/A,,Overcast,300,2012-12-24 13:42:00
7:55 AM,19.0,17.1,92,30.04,1.8,NNW,10.4,-,N/A,,Overcast,330,2012-12-24 13:55:00
8:25 AM,17.6,15.8,93,29.98,2.0,North,8.1,-,N/A,,Overcast,350,2012-12-24 14:25:00
8:55 AM,18.0,16.0,92,30.05,2.0,NW,8.1,-,N/A,,Overcast,310,2012-12-24 14:55:00
9:16 AM,17.6,17.6,100,30.00,1.8,NNW,9.2,-,N/A,,Overcast,330,2012-12-24 15:16:00
9:26 AM,19.4,17.6,93,30.01,2.0,NW,9.2,-,N/A,,Overcast,320,2012-12-24 15:26:00
9:55 AM,19.0,17.1,92,30.07,2.0,NW,8.1,-,N/A,,Overcast,310,2012-12-24 15:55:00
10:55 AM,19.9,17.1,89,30.07,3.0,NNW,10.4,-,N/A,,Overcast,330,2012-12-24 16:55:00
11:55 AM,21.0,18.0,88,30.08,3.0,WNW,8.1,-,N/A,,Overcast,300,2012-12-24 17:55:00
12:50 PM,19.4,15.8,86,30.01,5.0,NW,11.5,-,N/A,,Haze,310,2012-12-24 18:50:00
12:55 PM,19.9,15.1,81,30.06,5.0,NNW,12.7,-,N/A,,Haze,330,2012-12-24 18:55:00
1:18 PM,19.4,14.0,80,30.00,7.0,NW,12.7,-,N/A,,Overcast,320,2012-12-24 19:18:00
1:55 PM,19.9,12.9,74,30.06,7.0,NW,11.5,-,N/A,,Overcast,310,2012-12-24 19:55:00
2:55 PM,19.0,12.0,74,30.09,6.0,NW,11.5,-,N/A,,Haze,310,2012-12-24 20:55:00
3:55 PM,19.9,10.9,68,30.12,10.0,NW,9.2,-,N/A,,Overcast,310,2012-12-24 21:55:00
4:41 PM,19.4,12.2,74,30.07,10.0,NNW,9.2,-,N/A,,Scattered Clouds,330,2012-12-24 22:41:00
4:55 PM,19.9,12.0,71,30.13,10.0,NW,6.9,-,N/A,,Clear,310,2012-12-24 22:55:00
5:45 PM,19.4,12.2,74,30.11,10.0,NNW,11.5,-,N/A,,Mostly Cloudy,330,2012-12-24 23:45:00
5:55 PM,19.9,12.0,71,30.17,10.0,NW,11.5,-,N/A,,Mostly Cloudy,320,2012-12-24 23:55:00
6:55 PM,19.0,12.0,74,30.18,10.0,NNW,6.9,-,N/A,,Overcast,340,2012-12-25 00:55:00
7:35 PM,19.4,12.2,74,30.12,10.0,North,9.2,-,N/A,,Scattered Clouds,350,2012-12-25 01:35:00
7:55 PM,19.0,12.9,77,30.17,10.0,North,9.2,-,N/A,,Clear,350,2012-12-25 01:55:00
8:55 PM,19.0,12.9,77,30.17,9.0,North,10.4,-,N/A,,Partly Cloudy,360,2012-12-25 02:55:00
9:10 PM,19.4,14.0,80,30.12,9.0,North,10.4,-,N/A,,Mostly Cloudy,10,2012-12-25 03:10:00
9:44 PM,19.4,15.8,86,30.12,10.0,North,11.5,-,N/A,,Overcast,10,2012-12-25 03:44:00
9:55 PM,19.9,15.1,81,30.18,10.0,North,12.7,-,N/A,,Overcast,10,2012-12-25 03:55:00
10:55 PM,19.9,15.1,81,30.20,10.0,North,9.2,-,N/A,,Overcast,360,2012-12-25 04:55:00
11:55 PM,19.9,15.1,81,30.22,10.0,North,9.2,-,N/A,,Overcast,360,2012-12-25 05:55:00